When you browse on this site, cookies collect data to enhance your experience and personalize the content and advertising you see.
Visit our Privacy Policy to learn more. By continuing to use the site, you agree to this use of cookies and data.
  • în România
  • Lista ţărilor
  • Pe 7 zile
  • Temperatura apei
  • Meteo pe hartă
  • Widget-uri
  • user-avatar
    Intrare

    Meteo pe oră la Morobe

    Astăzi, 6 Iunie, Sâmbătă

    Timp Temperatura Precipitaţii Vânt Presiune Umiditate
    00:00 +27°C° 0.4 mm 1 m/s 758 mmHg 92%
    01:00 +27°C° 0.4 mm 2 m/s 758 mmHg 92%
    02:00 +27°C° 0.5 mm 2 m/s 757 mmHg 91%
    03:00 +27°C° 0.5 mm 2 m/s 757 mmHg 91%
    04:00 +26°C° 0 mm 2 m/s 757 mmHg 90%
    05:00 +27°C° 0.2 mm 2 m/s 757 mmHg 89%
    06:00 +27°C° 0.2 mm 2 m/s 757 mmHg 88%
    07:00 +27°C° 0.2 mm 2 m/s 757 mmHg 87%
    08:00 +29°C° 0 mm 2 m/s 757 mmHg 78%
    09:00 +31°C° 0 mm 1 m/s 758 mmHg 69%
    10:00 +34°C° 0 mm 1 m/s 757 mmHg 62%
    11:00 +33°C° 0.2 mm 1 m/s 757 mmHg 66%
    12:00 +34°C° 0.2 mm 2 m/s 756 mmHg 70%
    13:00 +32°C° 0.2 mm 2 m/s 756 mmHg 74%
    14:00 +31°C° 1.2 mm 2 m/s 755 mmHg 77%
    15:00 +31°C° 1.2 mm 3 m/s 755 mmHg 81%
    16:00 +30°C° 0 mm 3 m/s 756 mmHg 84%
    17:00 +29°C° 1.5 mm 3 m/s 756 mmHg 87%
    18:00 +28°C° 1.5 mm 3 m/s 757 mmHg 90%
    19:00 +27°C° 1.5 mm 3 m/s 757 mmHg 93%
    20:00 +27°C° 1.1 mm 3 m/s 757 mmHg 93%
    21:00 +27°C° 1.1 mm 3 m/s 758 mmHg 93%
    22:00 +27°C° 1.1 mm 3 m/s 758 mmHg 92%
    23:00 +27°C° 1.4 mm 3 m/s 758 mmHg 92%

    Mâine, 7 Iunie, Duminică

    Timp Temperatura Precipitaţii Vânt Presiune Umiditate
    00:00 +27°C° 1.4 mm 2 m/s 757 mmHg 92%
    01:00 +26°C° 1.4 mm 2 m/s 757 mmHg 92%
    02:00 +26°C° 1.7 mm 2 m/s 757 mmHg 92%
    03:00 +26°C° 1.7 mm 2 m/s 757 mmHg 91%
    04:00 +26°C° 1.7 mm 1 m/s 757 mmHg 91%
    05:00 +26°C° 2.2 mm 1 m/s 757 mmHg 92%
    06:00 +26°C° 2.2 mm 1 m/s 757 mmHg 93%
    07:00 +26°C° 2.2 mm 1 m/s 758 mmHg 94%
    08:00 +27°C° 2.6 mm 1 m/s 758 mmHg 94%
    09:00 +27°C° 2.6 mm 1 m/s 758 mmHg 94%
    10:00 +27°C° 2.6 mm 1 m/s 758 mmHg 94%
    11:00 +27°C° 1.4 mm 1 m/s 758 mmHg 93%
    12:00 +28°C° 1.4 mm 1 m/s 757 mmHg 92%
    13:00 +28°C° 1.4 mm 1 m/s 757 mmHg 91%
    14:00 +28°C° 0.1 mm 1 m/s 756 mmHg 91%
    15:00 +28°C° 0.1 mm 1 m/s 756 mmHg 92%
    16:00 +28°C° 0.1 mm 1 m/s 756 mmHg 92%
    17:00 +28°C° 0 mm 1 m/s 756 mmHg 93%
    18:00 +27°C° 0 mm 1 m/s 757 mmHg 95%
    19:00 +27°C° 0 mm 1 m/s 757 mmHg 96%
    20:00 +27°C° 0 mm 1 m/s 758 mmHg 96%
    21:00 +27°C° 0 mm 1 m/s 758 mmHg 95%
    22:00 +27°C° 0 mm 1 m/s 758 mmHg 95%
    23:00 +26°C° 0 mm 1 m/s 758 mmHg 95%

    Poimâine, 8 Iunie, Luni

    Timp Temperatura Precipitaţii Vânt Presiune Umiditate
    00:00 +26°C° 0 mm 1 m/s 758 mmHg 94%
    01:00 +26°C° 0 mm 1 m/s 758 mmHg 94%
    02:00 +26°C° 0 mm 1 m/s 757 mmHg 93%
    03:00 +26°C° 0 mm 1 m/s 757 mmHg 91%
    04:00 +26°C° 0 mm 1 m/s 757 mmHg 90%
    05:00 +26°C° 0 mm 1 m/s 757 mmHg 89%
    06:00 +26°C° 0 mm 2 m/s 758 mmHg 88%
    07:00 +26°C° 0 mm 2 m/s 758 mmHg 87%
    08:00 +28°C° 0 mm 2 m/s 758 mmHg 80%
    09:00 +30°C° 0 mm 2 m/s 758 mmHg 74%
    10:00 +32°C° 0 mm 2 m/s 758 mmHg 67%
    11:00 +32°C° 0.1 mm 2 m/s 758 mmHg 67%
    12:00 +32°C° 0.1 mm 2 m/s 757 mmHg 68%
    13:00 +32°C° 0.1 mm 2 m/s 757 mmHg 69%
    14:00 +32°C° 0.4 mm 2 m/s 757 mmHg 73%
    15:00 +31°C° 0.4 mm 2 m/s 756 mmHg 77%
    16:00 +30°C° 0.4 mm 3 m/s 756 mmHg 81%
    17:00 +29°C° 0.6 mm 2 m/s 757 mmHg 85%
    18:00 +28°C° 0.6 mm 2 m/s 757 mmHg 89%
    19:00 +27°C° 0.6 mm 2 m/s 757 mmHg 93%
    20:00 +27°C° 0.7 mm 2 m/s 758 mmHg 94%
    21:00 +27°C° 0.7 mm 2 m/s 758 mmHg 94%
    22:00 +27°C° 0.7 mm 2 m/s 759 mmHg 94%
    23:00 +27°C° 0.6 mm 2 m/s 759 mmHg 94%

    9 Iunie, Marţi

    Timp Temperatura Precipitaţii Vânt Presiune Umiditate
    00:00 +26°C° 0.6 mm 2 m/s 758 mmHg 94%
    01:00 +26°C° 0.6 mm 2 m/s 758 mmHg 93%
    02:00 +26°C° 0.3 mm 2 m/s 758 mmHg 92%
    03:00 +26°C° 0.3 mm 2 m/s 758 mmHg 91%
    04:00 +26°C° 0.3 mm 2 m/s 758 mmHg 90%
    05:00 +26°C° 0.7 mm 2 m/s 758 mmHg 91%
    06:00 +26°C° 0.7 mm 2 m/s 758 mmHg 91%
    07:00 +26°C° 0.7 mm 2 m/s 759 mmHg 92%
    08:00 +27°C° 1.3 mm 2 m/s 759 mmHg 91%
    09:00 +27°C° 1.3 mm 1 m/s 759 mmHg 91%
    10:00 +27°C° 1.3 mm 1 m/s 759 mmHg 91%
    11:00 +27°C° 0.8 mm 1 m/s 759 mmHg 91%
    12:00 +27°C° 0.8 mm 1 m/s 758 mmHg 91%
    13:00 +27°C° 0.8 mm 1 m/s 758 mmHg 91%
    14:00 +27°C° 0.1 mm 1 m/s 758 mmHg 90%
    15:00 +28°C° 0.1 mm 2 m/s 757 mmHg 90%
    16:00 +28°C° 0.1 mm 2 m/s 757 mmHg 89%
    17:00 +27°C° 0.2 mm 2 m/s 758 mmHg 89%
    18:00 +27°C° 0.2 mm 2 m/s 758 mmHg 89%
    19:00 +27°C° 0.2 mm 2 m/s 758 mmHg 89%
    20:00 +26°C° 0.2 mm 2 m/s 759 mmHg 89%
    21:00 +26°C° 0.2 mm 2 m/s 759 mmHg 88%
    22:00 +26°C° 0.2 mm 2 m/s 760 mmHg 88%
    23:00 +26°C° 0.1 mm 2 m/s 759 mmHg 88%

    10 Iunie, Miercuri

    Timp Temperatura Precipitaţii Vânt Presiune Umiditate
    00:00 +26°C° 0.1 mm 2 m/s 759 mmHg 87%
    01:00 +26°C° 0.1 mm 2 m/s 759 mmHg 87%
    02:00 +26°C° 0 mm 2 m/s 758 mmHg 87%
    03:00 +26°C° 0 mm 1 m/s 758 mmHg 87%
    04:00 +25°C° 0 mm 1 m/s 758 mmHg 86%
    05:00 +26°C° 0 mm 1 m/s 758 mmHg 86%
    06:00 +26°C° 0 mm 1 m/s 758 mmHg 85%
    07:00 +26°C° 0 mm 1 m/s 759 mmHg 84%
    08:00 +28°C° 0 mm 1 m/s 759 mmHg 77%
    09:00 +30°C° 0 mm 1 m/s 759 mmHg 70%
    10:00 +31°C° 0 mm 0 m/s 759 mmHg 62%
    11:00 +33°C° 0 mm 1 m/s 758 mmHg 62%
    12:00 +33°C° 0 mm 1 m/s 758 mmHg 61%
    13:00 +34°C° 0 mm 2 m/s 757 mmHg 61%
    14:00 +34°C° 0 mm 2 m/s 757 mmHg 64%
    15:00 +32°C° 0 mm 1 m/s 756 mmHg 68%
    16:00 +31°C° 0 mm 1 m/s 756 mmHg 72%
    17:00 +30°C° 0.1 mm 1 m/s 757 mmHg 78%
    18:00 +29°C° 0.1 mm 1 m/s 757 mmHg 84%
    19:00 +27°C° 0.1 mm 1 m/s 758 mmHg 91%
    20:00 +27°C° 0.1 mm 1 m/s 758 mmHg 91%
    21:00 +27°C° 0.1 mm 1 m/s 758 mmHg 91%
    22:00 +27°C° 0.1 mm 1 m/s 759 mmHg 91%
    23:00 +27°C° 0 mm 2 m/s 758 mmHg 90%

    11 Iunie, Joi

    Timp Temperatura Precipitaţii Vânt Presiune Umiditate
    00:00 +27°C° 0 mm 2 m/s 758 mmHg 90%
    01:00 +27°C° 0 mm 2 m/s 758 mmHg 89%
    02:00 +27°C° 0.2 mm 2 m/s 758 mmHg 89%
    03:00 +26°C° 0.2 mm 1 m/s 757 mmHg 89%
    04:00 +26°C° 0.2 mm 1 m/s 757 mmHg 89%
    05:00 +26°C° 0 mm 1 m/s 758 mmHg 88%
    06:00 +27°C° 0 mm 1 m/s 758 mmHg 87%
    07:00 +27°C° 0 mm 1 m/s 758 mmHg 86%
    08:00 +29°C° 0 mm 1 m/s 758 mmHg 79%
    09:00 +31°C° 0 mm 1 m/s 758 mmHg 72%
    10:00 +31°C° 0 mm 0 m/s 759 mmHg 65%
    11:00 +33°C° 0 mm 1 m/s 758 mmHg 64%
    12:00 +34°C° 0 mm 2 m/s 757 mmHg 64%
    13:00 +34°C° 0 mm 2 m/s 757 mmHg 64%
    14:00 +34°C° 0.2 mm 2 m/s 756 mmHg 68%
    15:00 +32°C° 0.2 mm 2 m/s 756 mmHg 73%
    16:00 +31°C° 0.2 mm 2 m/s 756 mmHg 77%
    17:00 +30°C° 0.2 mm 2 m/s 756 mmHg 82%
    18:00 +29°C° 0.2 mm 1 m/s 757 mmHg 88%
    19:00 +28°C° 0.2 mm 1 m/s 757 mmHg 93%
    20:00 +28°C° 0.5 mm 1 m/s 758 mmHg 93%
    21:00 +28°C° 0.5 mm 1 m/s 758 mmHg 93%
    22:00 +28°C° 0.5 mm 1 m/s 759 mmHg 93%
    23:00 +27°C° 0.1 mm 1 m/s 758 mmHg 93%
    Arată mai mult